Tracking 20724 objects as of 3-Jun-2020
HD Live streaming from Space Station
objects crossing your sky now

STARLINK-1337

Track STARLINK-1337 now!
10-day predictions
STARLINK-1337 is classified as:


NORAD ID: 45582
Int'l Code: 2020-025BD
Perigee: 385.7 km
Apogee: 387.9 km
Inclination: 53.0 °
Period: 92.1 minutes
Semi major axis: 6757 km
RCS: Unknown
Launch date: April 22, 2020
Source: United States (US)
Launch site: AIR FORCE EASTERN TEST RANGE (AFETR)
aabbcc
Your satellite tracking list
Your tracking list is empty




NASA's NSSDC Master Catalog

Two Line Element Set (TLE):
1 45582U 20025BD  20155.16667824  .00008157  00000-0  94758-4 0  9994
2 45582  52.9973 195.6426 0001571  91.2926   9.6867 15.62773317  7192
Source of the keplerian elements: AFSPC